Location: Unspecified
(0.0000°N, 0.0000°E)
Time: 09:20:22
(UTC+02:00)

Daily predictions for brighter satellites

Satellite Brightness Start Highest point End
(mag) Time Altitude Azimuth Time Altitude Azimuth Time Altitude Azimuth
USA 215 3.4 20:15:39 10° NE 20:22:10 89° NW 20:28:43 10° SW
Cosmos 2297 3.9 20:17:15 10° S 20:22:44 52° ESE 20:28:14 10° NNE
Cosmos 1943 4.4 20:21:16 10° NNW 20:26:36 47° WSW 20:31:59 10° S
Cosmos 923 Rocket 4.0 20:22:12 10° N 20:27:29 77° ENE 20:32:45 10° SSE
Cosmos 1867 4.0 20:24:52 10° SSW 20:30:15 70° WNW 20:35:38 10° NNE
Meteor 1-4 Rocket 3.9 20:28:34 10° SE 20:31:07 19° E 20:33:38 10° NE
SJ-6B 4.3 20:32:03 10° ESE 20:34:25 16° E 20:36:44 10° NE
Cosmos 1821 Rocket 4.3 20:29:48 10° S 20:36:12 78° W 20:42:34 10° N
Cosmos 1544 3.8 20:35:44 10° SSE 20:38:56 30° E 20:42:08 10° NNE
Cosmos 1378 4.3 20:39:26 10° NNE 20:42:25 23° E 20:45:25 10° SE
Meteor 2-15 Rocket 4.4 20:39:42 10° N 20:45:48 79° E 20:51:55 10° S
Longmarch 3A Rocket 4.3 20:45:11 10° NNE 20:47:36 15° NE 20:50:32 12° E
Milstar 3 3.3 20:40:08 10° SW 20:47:50 46° SSE 20:53:10 15° E
ARIANE 5 DEB (SYLDA) 2.3 20:50:28 10° WNW 20:52:08 34° N 20:53:14 20° ENE
NOSS 3-4 (A) 4.0 20:45:31 10° N 20:52:55 60° ENE 21:00:34 10° SE
NOSS 3-4 (C) 4.0 20:45:37 10° N 20:53:01 59° ENE 21:00:39 10° SE
Cosmos 1605 Rocket 3.9 20:48:14 10° S 20:54:22 73° E 21:00:34 10° N
Ariane H10+ 3.6 20:49:52 10° W 20:55:19 68° N 21:10:50 17° E
METEOR-M 4.1 20:50:12 10° SSE 20:55:30 66° ENE 21:00:46 10° N
Cosmos 1758 3.3 20:54:29 10° S 20:58:21 53° E 21:02:12 10° NNE
Meteor 1-24 Rocket 4.2 20:53:54 10° NNE 20:59:10 38° E 21:04:38 10° SSE
Cosmos 1125 Rocket 4.0 20:57:13 10° SSW 21:02:21 62° WNW 21:07:28 10° N
HETE-2 4.5 21:00:55 10° W 21:05:02 80° N 21:07:04 29° E
Cosmos 2112 Rocket 4.4 21:00:10 10° NNW 21:05:19 66° WSW 21:10:27 10° S
Ariane H10-3 3.3 21:02:11 10° WSW 21:05:45 63° S 21:14:58 20° E
Cosmos 1953 2.3 21:02:24 10° S 21:06:26 64° E 21:10:28 10° NNE
Resurs 01 Rocket 3.0 21:12:15 21° NE 21:12:15 21° NE 21:14:24 10° NNE
FREGAT/IRIS 2.5 21:10:19 10° S 21:13:24 87° WSW 21:16:27 10° NNW
COSMOS 2406 3.1 21:09:51 10° N 21:15:28 64° ENE 21:21:04 10° SSE
Meteor 2-5 Rocket 4.1 21:10:56 10° NNW 21:16:46 70° W 21:22:40 10° S
Cosmos 1271 Rocket 3.4 21:13:40 10° SSE 21:16:31 34° SE 21:16:31 34° SE
Cosmos 1707 4.0 21:14:24 10° NNW 21:18:03 42° W 21:21:43 10° SSW
Helios 1B rocket 2.3 21:14:22 10° NNE 21:18:26 68° ESE 21:22:30 10° S
SeaSat 1 4.2 21:21:10 16° NE 21:21:10 16° NE 21:22:46 10° NNE
Cosmos-2242 3.2 21:16:54 10° SSE 21:20:59 45° E 21:21:52 38° ENE
SPELTRA 3.5 21:19:04 10° WNW 21:22:24 46° N 21:24:43 28° ENE
ASTRO E2 3.2 21:23:09 10° WSW 21:27:05 55° NNW 21:28:19 38° NNE
Maqsat-H 2.5 21:23:47 10° WNW 21:27:06 37° N 21:28:15 30° NE
Cosmos 2369 Rocket 4.2 21:25:10 10° SSE 21:25:50 13° SSE 21:25:50 13° SSE
Cosmos 2061 Rocket 4.2 21:24:07 10° SSE 21:30:07 45° E 21:36:08 10° NNE
Cosmos 2123 Rocket 3.8 21:26:06 10° N 21:32:19 72° E 21:38:31 10° S
CZ-3C R/B 3.1 21:32:27 10° NNW 21:33:08 10° N 21:33:35 10° N
HJ-1C 4.4 21:38:10 41° NNW 21:38:10 41° NNW 21:40:31 10° NNW
Centaur D-1AR AC-36 3.2 21:33:54 10° W 21:38:46 25° SSW 21:39:54 21° S
ATLAS 2A CENTAUR R/B 3.0 21:36:37 10° WNW 21:41:00 89° NE 21:48:50 30° ESE
ALOS 2.8 21:41:16 10° S 21:45:50 57° WSW 21:50:25 10° NNW
FENGYUN 3A 3.9 21:40:52 10° S 21:46:15 70° WSW 21:51:37 10° NNW
Cosmos 1459 Rocket 3.9 21:42:04 10° S 21:48:26 79° E 21:54:43 10° N
Orbus 21S 3.1 21:49:18 10° WSW 21:52:22 86° NNW 21:53:29 60° ENE
In-Cosmos 22 3.9 21:47:54 10° N 21:53:10 88° E 21:53:20 84° SSE
Cosmos 2173 Rocket 3.8 21:47:53 10° S 21:54:00 87° E 22:00:09 10° N
Maqsat-B 3.8 21:51:43 10° WNW 21:54:26 35° NNW 21:54:26 35° NNW
ARIANE 44L R/B 3.8 22:00:25 10° W 22:03:36 59° WSW 22:03:36 59° WSW
ARIANE 5 R/B 4.2 22:04:03 10° WSW 22:05:23 16° WSW 22:05:23 16° WSW
Palapa 6 Rocket 4.1 22:04:17 10° WNW 22:10:05 59° NNW 22:10:05 59° NNW
CZ-4C R/B 3.1 22:06:18 10° SSW 22:09:09 34° SW 22:09:09 34° SW
